SL-14 DEB, 45305

Orbit data source: Space-Track

SL-14 DEB, 45305 is space debris in LEO originally from a launch on Thu, 15 Aug 1991 UTC launched from the Plesetsk Missile And Space Complex (PKMTR). Debris objects in space refer to the collection of defunct objects orbiting the Earth. Examples of debris include non-operational satellites, rocket bodies, and fragments generated from explosions, collisions, or faulty payload assembly.

Loading next visibility...
Identifier
45305, 1991-056AT
Orbit
LEO
Country
Flag of CISCIS
Related business
Manufacturer
Unknown
Mission
Spacecraft
Bus & Motor
Unknown
Mass
Unknown
Launch date (UTC)
1991-08-15 (34 years ago)
Launch vehicle
Unknown
Launch site
Plesetsk Missile And Space Complex (PKMTR)
Object type
Payload
Rocket body
Debris
Shape & HBR
Unknown shape, 0.1 m
Radar Cross Section
Small (<0.1 m²)

Expand to show TLE details & history
Last TLE update: 1 day ago

TLE from 1 day ago
0 SL-14 DEB
1 45305U 91056AT  25290.40812651  .00002840  00000-0  58752-2 0  9996
2 45305  82.5627 289.9320 0025389 174.1190 186.0244 13.31878223273120
Epoch: 2025-10-17T09:47Z
TLE epoch observation values (Epoch: 2025-10-17T09:47:42.130Z)
Latitude
-0.00002°
Longitude
116.85253°
Altitude
1,161.502 km
Speed
7.263 km/s
True Right ascension
19h 19m 43s
True Declination
0° 00' 00"
Sunlit
Object was in daylight at epoch
Visualization orbit readout
Latitude
Unknown
Longitude
Unknown
Altitude
Unknown
Speed
Unknown
Apparent Right ascension
Unknown
Apparent Declination
Unknown
Sunlit
N/A
Visualization observer readout
Local Sidereal Time
09:22:47
Azimuth
Unknown
Elevation
Unknown
Doppler factor
Unknown
Orbital elements
Apogee altitude
1,155.991 km
Perigee altitude
1,117.831 km
Semi-major axis
7,515.048 km
Eccentricity
0.00254
Inclination
82.5627°
RAAN
289.932°
Arg. of periapsis
174.119°
True anomaly
185.99396°
Mean anomaly
186.0244°
Eccentric anomaly
186.00917°
Mean motion
3.33154 °/min
Orbital period
108.06 mins
BSTAR
0.0058752
Loading maneuver chart data...
Computing Atmospheric mass density...
Loading historical data...
Loading historical data...
Loading historical data...
Loading historical data...
Loading historical data...
Loading historical data...
Loading historical data...

Documentation

Showing up to 5 results
|